TimeEST,TemperatureF,Dew PointF,Humidity,Sea Level PressureIn,VisibilityMPH,Wind Direction,Wind SpeedMPH,Gust SpeedMPH,PrecipitationIn,Events,Conditions,WindDirDegrees,DateUTC
12:56 AM,42.1,37.9,85,30.13,10.0,Calm,Calm,-,N/A,,Clear,0,2013-02-21 05:56:00
1:56 AM,39.9,36.0,86,30.12,10.0,Calm,Calm,-,N/A,,Clear,0,2013-02-21 06:56:00
2:56 AM,39.0,36.0,89,30.12,10.0,Calm,Calm,-,N/A,,Clear,0,2013-02-21 07:56:00
3:56 AM,39.0,35.1,86,30.11,10.0,Calm,Calm,-,N/A,,Clear,0,2013-02-21 08:56:00
4:56 AM,37.9,35.1,89,30.12,10.0,Calm,Calm,-,N/A,,Clear,0,2013-02-21 09:56:00
5:56 AM,37.9,35.1,89,30.12,10.0,Calm,Calm,-,N/A,,Clear,0,2013-02-21 10:56:00
6:56 AM,37.9,34.0,86,30.15,10.0,Calm,Calm,-,N/A,,Clear,0,2013-02-21 11:56:00
7:56 AM,42.1,37.9,85,30.17,6.0,Calm,Calm,-,N/A,,Mostly Cloudy,0,2013-02-21 12:56:00
8:56 AM,48.9,36.0,61,30.19,10.0,North,3.5,-,N/A,,Mostly Cloudy,10,2013-02-21 13:56:00
9:56 AM,53.1,37.0,55,30.19,10.0,Variable,3.5,-,N/A,,Mostly Cloudy,0,2013-02-21 14:56:00
10:56 AM,57.0,30.0,36,30.19,10.0,Calm,Calm,-,N/A,,Mostly Cloudy,0,2013-02-21 15:56:00
11:56 AM,62.1,34.0,35,30.18,10.0,SSE,6.9,-,N/A,,Mostly Cloudy,150,2013-02-21 16:56:00
12:56 PM,64.0,34.0,33,30.15,10.0,SSE,6.9,-,N/A,,Mostly Cloudy,160,2013-02-21 17:56:00
1:56 PM,64.0,37.0,37,30.12,10.0,East,5.8,-,N/A,,Mostly Cloudy,80,2013-02-21 18:56:00
2:56 PM,64.0,44.1,48,30.10,10.0,SSE,9.2,-,N/A,,Scattered Clouds,150,2013-02-21 19:56:00
3:56 PM,61.0,39.9,46,30.09,10.0,SSE,6.9,-,N/A,,Mostly Cloudy,160,2013-02-21 20:56:00
4:56 PM,61.0,42.1,50,30.10,10.0,SSE,6.9,-,N/A,,Clear,150,2013-02-21 21:56:00
5:56 PM,57.0,44.1,62,30.11,10.0,SE,6.9,-,N/A,,Clear,140,2013-02-21 22:56:00
6:56 PM,54.0,46.0,75,30.11,10.0,SE,6.9,-,N/A,,Clear,130,2013-02-21 23:56:00
7:56 PM,53.1,46.9,80,30.13,10.0,SE,4.6,-,N/A,,Clear,130,2013-02-22 00:56:00
8:56 PM,51.1,46.9,86,30.12,10.0,Calm,Calm,-,N/A,,Clear,0,2013-02-22 01:56:00
9:56 PM,52.0,48.9,89,30.14,10.0,Calm,Calm,-,N/A,,Clear,0,2013-02-22 02:56:00
10:56 PM,54.0,50.0,86,30.14,10.0,East,3.5,-,N/A,,Clear,100,2013-02-22 03:56:00
11:56 PM,52.0,48.9,89,30.13,10.0,ENE,4.6,-,N/A,,Clear,60,2013-02-22 04:56:00